Satellite-Ground Cal/Val Region Overpasses Predictions

Prediction of Satellite NPP Overpassing Cal/Val Region: PacNW

Region Location: (Latitude: 10.00, Longitude: 139.50) to (Latitude: 22.70, Longitude: 165.60).

Table of predicted overpasses for the next 14.0 days since TLE Epoch: 2/22/2020
Interval Starting Time Starting Location Ending Time Ending Location
1 02/22/2020 14:45:23 ( 22.65, 163.48) 02/22/2020 14:48:58 ( 10.03, 160.48)
2 02/23/2020 03:35:58 ( 10.04, 145.63) 02/23/2020 03:39:33 ( 22.66, 142.63)
3 02/23/2020 14:29:29 ( 11.61, 165.60) 02/23/2020 14:29:56 ( 10.02, 165.23)
4 02/23/2020 16:07:50 ( 22.70, 142.87) 02/23/2020 16:11:26 ( 10.02, 139.86)
5 02/24/2020 03:16:56 ( 10.04, 150.39) 02/24/2020 03:20:31 ( 22.66, 147.39)
6 02/24/2020 15:48:49 ( 22.69, 147.63) 02/24/2020 15:52:25 ( 10.01, 144.61)
7 02/25/2020 02:57:55 ( 10.05, 155.14) 02/25/2020 03:01:30 ( 22.67, 152.14)
8 02/25/2020 15:29:48 ( 22.69, 152.38) 02/25/2020 15:33:24 ( 10.01, 149.37)
9 02/26/2020 02:38:53 ( 10.05, 159.90) 02/26/2020 02:42:28 ( 22.67, 156.89)
10 02/26/2020 15:10:46 ( 22.68, 157.14) 02/26/2020 15:14:22 ( 10.00, 154.12)
11 02/27/2020 02:19:52 ( 10.05, 164.65) 02/27/2020 02:23:27 ( 22.68, 161.65)
12 02/27/2020 14:51:45 ( 22.68, 161.89) 02/27/2020 14:55:20 ( 10.06, 158.89)
13 02/28/2020 03:42:19 ( 10.01, 144.04) 02/28/2020 03:45:55 ( 22.69, 141.03)
14 02/28/2020 14:33:56 ( 18.39, 165.60) 02/28/2020 14:36:18 ( 10.05, 163.64)
15 02/28/2020 16:14:13 ( 22.67, 141.27) 02/28/2020 16:16:17 ( 15.39, 139.51)
16 02/29/2020 03:23:18 ( 10.01, 148.80) 02/29/2020 03:26:54 ( 22.69, 145.78)
17 02/29/2020 15:55:12 ( 22.66, 146.03) 02/29/2020 15:58:47 ( 10.04, 143.02)
18 03/01/2020 03:04:16 ( 10.02, 153.55) 03/01/2020 03:07:52 ( 22.70, 150.54)
19 03/01/2020 15:36:10 ( 22.66, 150.78) 03/01/2020 15:39:45 ( 10.04, 147.78)
20 03/02/2020 02:45:15 ( 10.02, 158.31) 03/02/2020 02:48:50 ( 22.65, 155.31)
21 03/02/2020 15:17:09 ( 22.65, 155.53) 03/02/2020 15:20:44 ( 10.03, 152.53)
22 03/03/2020 02:26:14 ( 10.03, 163.06) 03/03/2020 02:29:49 ( 22.65, 160.06)
23 03/03/2020 14:58:07 ( 22.64, 160.29) 03/03/2020 15:01:42 ( 10.02, 157.29)
24 03/04/2020 02:09:53 ( 19.49, 165.60) 03/04/2020 02:10:47 ( 22.66, 164.82)
25 03/04/2020 03:48:42 ( 10.04, 142.44) 03/04/2020 03:52:12 ( 22.37, 139.51)
26 03/04/2020 14:39:05 ( 22.70, 165.06) 03/04/2020 14:42:41 ( 10.02, 162.04)
27 03/04/2020 16:20:35 ( 22.69, 139.68) 03/04/2020 16:20:47 ( 21.99, 139.51)
28 03/05/2020 03:29:41 ( 10.05, 147.20) 03/05/2020 03:33:16 ( 22.67, 144.20)
29 03/05/2020 16:01:33 ( 22.68, 144.44) 03/05/2020 16:05:09 ( 10.01, 141.42)
30 03/06/2020 03:10:39 ( 10.06, 151.95) 03/06/2020 03:14:14 ( 22.68, 148.95)
31 03/06/2020 15:42:32 ( 22.68, 149.19) 03/06/2020 15:46:07 ( 10.06, 146.19)


NCC Satellite Cal/Val Overpasses Prediction Service
